Find Starlink 34635

NORAD ID: 64761 Int'l Des: 2025-147 Owner: SPXS Country: US Constellation: starlink operational
LEOCIRCULAR

实时位置

正在加载3D地球...

关于 Starlink 34635

正在加载描述...

即将过境

Passes for default location (London). Set your location on the main map for personalized predictions.

高度历史

Loading altitude history...

两行轨道根数

1 64761U 25147G 26104.93612858 .00006497 00000-0 23131-3 0 9997
2 64761 53.1569 74.2187 0001442 87.6181 272.4985 15.30199921 44304
Epoch: Apr 14, 2026 • Age: 11 hours

当前状态

高度 475.0 km
速度 7.63 km/s
星下点 14.72°N, 97.01°E
发射日期 Jul 8, 2025
运行时间 0.7 years
类型 internet

技术详情

分类 Payload
质量 575.00 kg
干质量 530.00 kg
总质量 575.00 kg
长度 0.30 m
直径 4.10 m
跨度 29.00 m
形状 Box + pan
制造商 SPXS
平台类型 Starlink V2MO
阶段状态 In Orbit
所有者/国家 SPXS/US

Most Searched